Location: Home
(42.5358°N, 72.7383°W)
Time: 13:46:46
(UTC-05:00)

A-11 Canister half - Visible Passes

Search period start: 30 November 2021 00:00
Search period end: 10 December 2021 00:00
Orbit: 1516 x 1684 km, 47.2° (Epoch: 29 November)

Date Brightness Start Highest point End Pass type
(mag) Time Alt. Az. Time Alt. Az. Time Alt. Az.
30 Nov 11.3 05:38:06 10° S 05:45:10 24° SE 05:52:25 10° E visible
01 Dec 11.3 05:15:38 10° S 05:22:22 22° SE 05:29:13 10° E visible
02 Dec 11.3 04:53:12 10° SSE 04:59:33 20° SE 05:06:00 10° E visible
03 Dec 11.3 04:30:51 10° SSE 04:36:44 18° SE 04:42:44 10° E visible
03 Dec 9.8 06:30:43 10° SW 06:40:06 60° SE 06:49:50 10° ENE visible
04 Dec 11.3 04:08:32 10° SSE 04:13:57 17° ESE 04:19:25 10° E visible
04 Dec 9.8 06:07:55 10° SW 06:17:12 57° SE 06:26:51 10° ENE visible
05 Dec 11.2 03:46:20 10° SSE 03:51:09 15° ESE 03:56:02 10° E visible
05 Dec 9.8 05:45:08 10° SW 05:54:19 54° SE 06:03:51 10° ENE visible
06 Dec 11.2 03:24:15 10° SSE 03:28:21 14° ESE 03:32:30 10° E visible
06 Dec 9.8 05:22:21 10° SSW 05:31:26 51° SE 05:40:52 10° ENE visible
07 Dec 11.2 03:02:22 10° SE 03:05:34 12° ESE 03:08:48 10° E visible
07 Dec 9.9 04:59:36 10° SSW 05:08:34 49° SE 05:17:52 10° ENE visible
08 Dec 11.3 02:41:00 10° SE 02:42:47 11° ESE 02:44:35 10° ESE visible
08 Dec 9.9 04:36:51 10° SSW 04:45:42 46° SE 04:54:52 10° ENE visible
09 Dec 9.9 04:14:20 11° SSW 04:22:51 43° SE 04:31:51 10° ENE visible
09 Dec 9.1 06:17:38 10° WSW 06:27:17 86° NNW 06:37:20 10° ENE visible
